Location: Hains Lake
(37.8540°N, 99.8578°W)
Time: 18:45:57
(UTC+00:00)

Courier 1B Rocket - Pass Details

Date: 22 April 2021
Orbit: 920 x 1202 km, 28.2° (Epoch: 05 May)

Event Time Altitude Azimuth Distance (km) Brightness Sun altitude
Rises 02:49:41 0° 248° (WSW) 3,670 8.6 -16.8°
Reaches altitude 10° 02:52:27 10° 240° (WSW) 2,761 7.7 -17.3°
Maximum altitude 02:58:33 37° 175° (S) 1,562 5.8 -18.3°
Enters shadow 03:01:04 29° 136° (SE) 1,853 5.9 -18.7°
